Regional Weather Roundup
Issued by NWS Midland/Odessa, TX

Skip options and go directly to product.
Home | Oldest Version | Previous Version | Current Version | All | Text Only | Save Text | Print | Product List | Glossary Off

Skip product version selection by date and time.   

272
ASUS44 KMAF 230310
RWRMAF
MIDLAND AREA WEATHER ROUNDUP
NATIONAL WEATHER SERVICE MIDLAND TX
900 PM CST SAT NOV 22 2014

...IN SOUTHWEST TEXAS AND SOUTHEAST NEW MEXICO...

CITY           SKY/WX    TMP DP  RH WIND       PRES   REMARKS
ALPINE         CLEAR     53  36  52 W12       29.98F
ANDREWS        FAIR      54  35  49 W8        29.80S
ARTESIA        NOT AVBL
BIG SPRING     PTCLDY    56  54  91 SE10      29.80F
CARLSBAD       CLEAR     54  28  36 W10       29.81R
DRYDEN           N/A     59  39  47 W9        29.81S
FORT STOCKTON  CLEAR     55  37  50 SW10      29.85S
GUAD PASS      PTCLDY    48  30  49 SW18      29.94R
HOBBS          CLEAR     50  28  43 SW9       29.82S
MARFA          CLEAR     45  32  61 SW7       29.98R
MIDLAND AIRPK  CLEAR     57  57 100 CALM      29.80S FOG
MIDLAND INTL   CLEAR     54  51  90 SW6       29.80R
ODESSA         CLEAR     54  36  50 SW5       29.81R
PECOS          CLEAR     55  36  50 SW9       29.83S
PRESIDIO       FAIR      56  38  51 NW6       29.91S
SEMINOLE       CLEAR     52  32  45 W9        29.80S
SNYDER         MOCLDY    51  50  97 S6        29.79F FOG
WINK           CLEAR     56  34  43 W9        29.80R
$$
...OTHER STATIONS IN TEXAS...

CITY           SKY/WX    TMP DP  RH WIND       PRES   REMARKS
ABILENE        CLOUDY    55  52  89 S8        29.76F
AMARILLO       CLEAR     45  41  86 SE12      29.68F WCI  39
AUSTIN         HAIL      59  59 100 S16       29.81R FOG
BROWNSVILLE    CLOUDY    75  72  90 S15       29.75R
CORPUS CHRISTI RAIN      65  60  84 S7        29.80F
DALLAS FTW     CLOUDY    55  55 100 SE5       29.76F
DEL RIO        CLEAR     56  53  90 NW3       29.78S
EL PASO        PTCLDY    61  17  18 W10       29.92R
HOUSTON INT    TSTM      66  64  94 SE7       29.79F FOG
LUBBOCK        CLEAR     51  49  92 S12       29.76R FOG
SAN ANGELO     MOCLDY    56  53  90 N5        29.79F
SAN ANTONIO    LGT RAIN  63  56  78 W20G25    29.83R
WACO           LGT RAIN  60  59  96 N13       29.81R
WICHITA FALLS  NOT AVBL
$$
...OTHER LOCATIONS IN NEW MEXICO...

CITY           SKY/WX    TMP DP  RH WIND       PRES   REMARKS
ALAMAGORDO     CLEAR     50  23  34 MISG      29.90S
ALBUQUERQUE    MOCLDY    45  16  31 E3        29.91S
CANNON AFB     CLEAR     61  16  17 W21G28    29.75F
CLOVIS         CLEAR     46  18  31 SW16      29.74F WCI  40
HOLLOMAN AFB   CLEAR     51  20  29 SW8       29.88F
ROSWELL        CLEAR     43  24  47 SW7       29.79F WCI  39
RUIDOSO        CLEAR     46  14  27 W14G22    29.90S
SANTA FE       MOCLDY    39  13  34 N6        29.89S WCI  35
TRUTH OR CONSE CLEAR     51  18  27 W7        29.90S
TUCUMCARI        N/A     54  18  24 W14       29.63F
$$

USA.gov is the U.S. government's official web portal to all federal, state and local government web resources and services.